Regional Weather Roundup
Issued by NWS

Home | Current Version | Previous Version | Text Only | Print | Product List | Glossary On
Versions: 1 2 3 4 5 6 7 8 9 10 11 12 13 14 15 16 17 18 19 20 21 22 23 24 25 26 27 28 29 30 31 32 33 34 35 36 37 38 39 40 41 42 43 44 45 46 47 48 49 50
000
ASUS43 KLSX 290559
RWRMO

WEATHER SUMMARY FOR MISSOURI
NATIONAL WEATHER SERVICE SPRINGFIELD MO
100 AM CDT WED JUL 29 2015

NOTE: "FAIR" INDICATES FEW OR NO CLOUDS BELOW 12,000 FEET WITH NO
       SIGNIFICANT WEATHER AND/OR OBSTRUCTIONS TO VISIBILITY.
       CURRENT SKY AND/OR WEATHER CONDITIONS ARE NOT AVAILABLE FOR
       CHILLICOTHE AND FARMINGTON.

MOZ001>031-035>038-043-044-053-054-290700-
...NORTHERN AND WESTERN MISSOURI...

CITY           SKY/WX    TMP DP  RH WIND       PRES   REMARKS
KANSAS CTY INT CLOUDY    83  73  72 W7        29.97R
6HR MIN TEMP:  82; 6HR MAX TEMP:  90;

KANSAS C DTWN  CLOUDY    87  72  60 SW8       29.94R HX  93
6HR MIN TEMP:  85; 6HR MAX TEMP:  94;

LEE`S SUMMIT   CLEAR     83  72  69 SW8       29.97R
6HR MIN TEMP:  83; 6HR MAX TEMP:  92;

ST JOSEPH      CLOUDY    78  73  84 N26       29.98R THUNDER
6HR MIN TEMP:  78; 6HR MAX TEMP:  91;

CHILLICOTHE      N/A     77  70  79 N22G29    30.02R
6HR MIN TEMP:  77; 6HR MAX TEMP:  92;

KIRKSVILLE     CLOUDY    77  66  68 NW10      30.01R
6HR MIN TEMP:  76; 6HR MAX TEMP:  90; 6HR PCP: TRACE;


$$
MOZ066>068-077>081-088>096-101>105-290700-
...SOUTHWEST MISSOURI...

CITY           SKY/WX    TMP DP  RH WIND       PRES   REMARKS
SPRINGFIELD    CLEAR     79  74  84 SE5       30.02R
6HR MIN TEMP:  79; 6HR MAX TEMP:  90;

JOPLIN         CLEAR     79  74  84 S8        30.00S
6HR MIN TEMP:  79; 6HR MAX TEMP:  91;


$$
MOZ032>034-039>042-045>050-055>058-069>072-290700-
...CENTRAL MISSOURI...

CITY           SKY/WX    TMP DP  RH WIND       PRES   REMARKS
COLUMBIA       CLEAR     79  77  94 S3        29.97S
6HR MIN TEMP:  79; 6HR MAX TEMP:  90;

JEFFERSON CITY CLEAR     81  76  84 E3        29.95F
6HR MIN TEMP:  79; 6HR MAX TEMP:  93;

ROLLA          CLEAR     76  74  93 S7        29.99F
6HR MIN TEMP:  75; 6HR MAX TEMP:  88;

SEDALIA        CLEAR     80  74  81 S5        29.98S
6HR MIN TEMP:  79; 6HR MAX TEMP:  92;

OSAGE BEACH    CLEAR     81  75  83 S3        29.99S

$$
MOZ051-052-059>065-290700-
...EAST CENTRAL MISSOURI...

CITY           SKY/WX    TMP DP  RH WIND       PRES   REMARKS
ST LOUIS INTL  PTCLDY    87  77  72 S8        29.95F HX  99
6HR MIN TEMP:  87; 6HR MAX TEMP:  93;

SPIRIT OF STL  CLEAR     82  79  90 S5        29.93F HX  92
6HR MIN TEMP:  81; 6HR MAX TEMP:  94;

ST CHARLES     CLEAR     80  78  94 CALM      29.93F
6HR MIN TEMP:  80; 6HR MAX TEMP:  90;


$$
MOZ072>076-082>087-097>100-106>115-290700-
...SOUTH CENTRAL AND SOUTHEAST MISSOURI...

CITY           SKY/WX    TMP DP  RH WIND       PRES   REMARKS
CAPE GIRARDEAU MOCLDY    81  76  84 CALM      29.98S
6HR MIN TEMP:  81; 6HR MAX TEMP:  90;

FARMINGTON     PTCLDY    77  75  94 SE3       30.05S
6HR MIN TEMP:  77; 6HR MAX TEMP:  86;

POPLAR BLUFF   CLEAR     81  79  94 CALM      29.97F FOG     HX  90
6HR MIN TEMP:  81; 6HR MAX TEMP:  91; 6HR PCP: TRACE;

WEST PLAINS    CLEAR     77  74  90 CALM      30.05S
6HR MIN TEMP:  77; 6HR MAX TEMP:  89;


$$



USA.gov is the U.S. government's official web portal to all federal, state and local government web resources and services.